Location: Praha
(50.0830°N, 14.4670°E)
Time: 03:26:04
(UTC+02:00)

ISS - Pass Details

Date: 19 May 2024
Orbit: 409 x 414 km, 51.6° (Epoch: 23 May)

Event Time Altitude Azimuth Distance (km) Brightness Sun altitude
Rises 22:36:00 0° 284° (WNW) 2,350 0.8 -13.1°
Reaches altitude 10° 22:38:06 10° 285° (WNW) 1,485 -0.2 -13.3°
Maximum altitude 22:41:26 83° 14° (NNE) 420 -3.8 -13.6°
Enters shadow 22:43:46 18° 101° (ESE) 1,077 -2.1 -13.8°
